World > North America > United States > Tennessee   Town of Mountain City, TN

Mountain City, Tennessee Regional Weather

Lat: 36.47N, Lon: 81.81W
Wx Zone: TNZ018
Feedback

Mountain City, TN Regional Weather

Expires:202002230500;;951629
ASUS44 KMEG 230400
RWRTN 
TENNESSEE HOURLY STATE WEATHER ROUNDUP
NATIONAL WEATHER SERVICE MEMPHIS TN
1000 PM CST SAT FEB 22 2020


TNZ017-018-042-046-047-230500-
NORTHEAST TENNESSEE
  
CITY           SKY/WX    TMP DP  RH WIND       PRES   REMARKS
TRI CITIES     FAIR      28  21  75 CALM      30.32R                  
$$


SKY/WX - Weather  TMP - Temperature  DP - Dew Point  RH - Relative Humidity
WIND - Wind Direction/Speed PRES - Barometric Pressure VSB - Visibility
WCI - Wind Chill Index E13G22 Wind - East Wind 13 mph/Gusts of 22 mph
Mountain City Weather Map
What is UTC time?